QB50P1

Last updated on Sat Aug 30 2025 00:03:09 GMT+0000 (Coordinated Universal Time)

1 40025U 14033R 25241.20058294 .00011614 00000+0 68647-3 0 9992 2 40025 98.0892 228.3658 0011722 134.8498 225.3685 15.11600185608815
UTC large
Height (km)
Speed (km/s)
/
Latitude / Longitude
Inclination (degrees)
Orbital Period (minutes)
Azimuth
Elevation
Range (km)
Doppler Factor

Next 0 passes for location: London (51.5072 / 0.1276)

Sorry there are no passes over London.